Regional Weather Roundup
Issued by NWS

Home | Current Version | Previous Version | Graphics & Text | Print | Product List | Glossary On
Versions: 1 2 3 4 5 6 7 8 9 10 11 12 13 14 15 16 17 18 19 20 21 22 23 24 25 26 27 28 29 30 31 32 33 34 35 36 37 38 39 40 41 42 43 44 45 46 47 48 49 50
000
ASUS45 KSLC 250710
RWRUT

UTAH REGIONAL WEATHER ROUNDUP
NATIONAL WEATHER SERVICE SALT LAKE CITY UT
100 AM MDT SAT APR 25 2015

UTZ001>011-023>025-250800-

NORTHERN UTAH

CITY           SKY/WX    TMP DP  RH WIND       PRES   REMARKS
BRIGHAM CITY   CLOUDY    46  42  86 CALM      29.79S
HILL AFB       CLOUDY    45  45 100 S8        29.81S
LOGAN          LGT RAIN  45  40  82 S5        29.77S
OGDEN          CLOUDY    46  44  93 S10       29.80R
PROVO AIRPORT  CLOUDY    46  39  76 CALM      29.82S
SALT LAKE CITY MOCLDY    47  43  86 N6        29.81F
VERNAL         CLOUDY    53  33  46 W16G22    29.73S
WENDOVER       MOCLDY    46  28  49 NW9       29.81F
HEBER CITY     CLOUDY    43  36  75 SW9       29.80R
WEST JORDAN    CLOUDY    45  45 100 N5        29.83R

$$

UTZ012>022-026-027-250800-

SOUTHERN/CENTRAL UTAH

CITY           SKY/WX    TMP DP  RH WIND       PRES   REMARKS
BLANDING       MOCLDY    47  33  56 S9        29.94S
BRYCE CANYON   LGT RAIN  38  35  89 SE3       29.91S
CEDAR CITY     RAIN      42  39  89 SW14      29.91R
DELTA          MOCLDY    45  43  91 S7        29.83R
HANKSVILLE     CLOUDY    59  32  36 W8        29.78R
MILFORD        CLOUDY    47  28  47 S14       29.82F
MOAB/CYNLANDS  CLOUDY    58  30  34 SW14      29.73S
PRICE          LGT RAIN  45  38  76 W12       29.80R
ST GEORGE      CLOUDY    55  45  67 NW5       29.88R
KANAB          CLOUDY    50  39  66 SW3       29.90S

$$

REGIONAL REPORTS     COLORADO/ARIZONA

CITY           SKY/WX    TMP DP  RH WIND       PRES   REMARKS
CRAIG, CO      PTCLDY    42  32  67 NW3       29.78S
GRAND JUNCTION CLOUDY    51  33  50 SE14      29.76F
RIFLE          CLEAR     39  31  72 CALM      29.81S
MONTROSE       PTCLDY    38  33  82 S5        29.85S WCI  34
CORTEZ         CLOUDY    51  34  52 S16       29.91S
PAGE, AZ       CLOUDY    60  34  37 S7        29.83S
GRAND CANYON   CLOUDY    45  35  68 SW10      29.97S
KINGMAN        MOCLDY    58  40  51 S10       29.87R
FLAGSTAFF      MOCLDY    40  39  97 SW13      29.99F WCI  32

$$

REGIONAL REPORTS    NEVADA/IDAHO/WYOMING

CITY           SKY/WX    TMP DP  RH WIND       PRES   REMARKS
LAS VEGAS, NV  PTCLDY    62  38  40 S17G28    29.73F
ELY            CLOUDY    35  33  92 SE8       29.86R WCI  29
ELKO           CLOUDY    39  35  86 CALM      29.83S
POCATELLO, ID  CLOUDY    45  35  68 SW14      29.79R
BURLEY         CLOUDY    42  33  70 SW12      29.76F
EVANSTON, WY   CLOUDY    34 N/A N/A SW16      29.79R FOG     WCI  24
ROCK SPRINGS   PTCLDY    39  33  79 SW6       29.74F WCI  35
KEMMERER       LGT SNOW  32  32 100 W13       29.77R VSB 3/4 WCI  22

$$


USA.gov is the U.S. government's official web portal to all federal, state and local government web resources and services.